Location: The D'Auria's Ocala Star Observatory
(29.0276°N, 82.1742°W)
Time: 10:53:55
(UTC-04:00)

Okean 3 Rocket - Visible Passes

Search period start: 25 May 2016 00:00
Search period end: 04 June 2016 00:00
Orbit: 615 x 646 km, 82.5° (Epoch: 24 May)

Date Brightness Start Highest point End Pass type
(mag) Time Alt. Az. Time Alt. Az. Time Alt. Az.
26 May 6.6 00:19:24 10° NNE 00:19:24 10° NNE 00:19:27 10° NNE visible
27 May 6.6 00:40:01 13° N 00:40:01 13° N 00:40:27 10° N visible
28 May 6.7 01:00:37 11° NNW 01:00:37 11° NNW 01:00:53 10° NNW visible
28 May 6.4 23:43:49 11° NNE 23:43:49 11° NNE 23:44:00 10° NNE visible
30 May 6.2 00:04:24 16° N 00:04:24 16° N 00:05:15 10° N visible
31 May 6.3 00:24:56 16° NNW 00:24:56 16° NNW 00:25:58 10° N visible
31 May 6.2 23:08:05 12° NE 23:08:05 12° NE 23:08:25 10° NE visible
01 Jun 6.6 00:45:27 12° NW 00:45:27 12° NW 00:45:57 10° NNW visible
01 Jun 5.8 23:28:35 19° NNE 23:28:35 19° NNE 23:29:58 10° NNE visible
02 Jun 5.7 23:49:04 24° N 23:49:04 24° N 23:50:54 10° N visible
03 Jun 6.0 22:32:09 12° NE 22:32:09 12° NE 22:32:37 10° NE visible
